Temperature
27 26 25 24 23 22 22 22 21 21 21 21 20 20 20 20 20 20 20 20 19 19 19 19 19 19 18 18 18 18 18 18 19 19 19 19 19 19 18 18 18 18 18
27 26 25 24 23 23 22 22 21 21 21 21 21 20 20 20 20 20 20 20 19 19 19 19 19 19 18 18 18 18 18 18 18 18 18 18 19 19 18 18 18 18 18
27 26 25 24 24 23 22 22 21 21 21 21 20 20 20 20 20 19 19 19 19 19 19 19 19 18 18 18 18 18 18 18 18 18 18 18 18 18 18 18 18 18 18
28 26 25 25 24 23 22 22 22 21 21 21 20 20 20 20 20 20 19 19 19 19 19 19 19 18 18 18 18 18 18 18 18 18 18 18 18 18 18 18 18 18 18
28 27 26 25 24 23 23 22 22 21 21 21 20 20 20 20 20 19 19 19 19 19 18 18 18 18 18 18 18 18 18 18 18 18 18 18 18 18 18 18 18 18 17
28 27 26 25 24 24 23 22 21 21 21 20 20 20 20 20 20 19 19 19 19 19 18 18 18 18 18 18 18 18 18 18 18 18 18 18 18 18 18 18 18 17 17
28 27 26 25 24 23 23 22 22 21 21 20 20 20 20 20 19 19 19 19 19 19 19 18 18 18 18 18 18 18 17 17 17 17 17 17 17 17 17 17 17 17 17
28 27 26 25 24 23 23 22 22 21 21 20 20 20 20 20 19 19 19 19 19 19 18 18 18 18 18 18 17 17 17 17 17 17 17 17 17 17 17 17 17 17 17
28 27 26 25 24 23 23 22 22 21 21 20 20 20 20 19 19 19 19 18 18 18 18 18 18 18 18 17 17 17 17 17 17 17 17 16 16 16 17 17 17 17 16
27 27 26 25 24 23 23 22 22 21 21 20 20 20 20 19 19 19 18 18 18 18 18 18 18 18 17 17 17 17 17 16 16 16 16 16 16 16 16 16 16 16 16
27 27 26 25 24 23 23 22 22 21 21 20 20 20 19 19 19 19 18 18 18 18 18 18 17 17 17 17 17 16 16 16 16 16 16 16 16 16 16 16 16 16 16
27 26 25 25 24 23 23 22 21 21 20 20 20 19 19 19 18 18 18 18 18 18 18 17 17 17 17 17 16 16 16 16 16 16 15 15 15 15 15 15 15 15 15
26 25 25 24 23 23 22 22 21 21 20 20 19 19 19 19 18 18 18 18 18 17 17 17 17 17 17 16 16 16 16 16 16 15 15 15 15 15 15 15 15 15 15
25 24 24 23 23 22 22 21 21 20 20 20 19 19 19 18 18 18 18 18 17 17 17 17 17 16 16 16 16 16 16 15 15 15 15 15 15 15 15 15 15 15 15
25 24 23 22 22 22 21 21 20 20 20 19 19 19 18 18 18 18 17 17 17 17 17 16 16 16 16 16 16 15 15 15 15 15 15 15 15 15 15 14 14 14 14
24 23 23 22 21 21 21 20 20 20 19 19 19 19 18 18 17 17 17 17 17 16 16 16 16 16 15 15 15 15 15 15 15 15 15 15 15 15 15 14 14 14 14
23 23 22 22 21 20 20 20 19 19 19 19 18 18 18 17 17 17 17 17 16 16 16 16 16 15 15 15 15 15 15 15 14 14 14 14 14 14 14 14 14 14 14
22 22 21 21 20 20 20 19 19 19 18 18 18 17 17 17 17 17 17 16 16 16 16 16 15 15 15 15 15 15 15 14 14 14 14 14 14 14 14 13 13 13 13
22 21 21 20 20 20 19 19 18 18 18 18 17 17 17 17 17 16 16 16 16 16 15 15 15 15 15 15 15 15 14 14 14 14 14 14 14 14 14 13 13 13 13
21 20 20 20 20 19 19 19 18 18 18 17 17 17 17 16 16 16 16 16 16 15 15 15 15 15 15 15 15 14 14 14 14 14 14 14 14 14 13 13 13 13 13
20 20 19 19 19 19 18 18 18 17 17 17 17 16 16 16 16 16 16 15 15 15 15 15 15 15 15 15 15 14 14 14 14 14 14 13 13 13 13 13 13 13 12
19 19 19 18 18 18 18 18 17 17 17 16 16 16 16 16 16 15 15 15 15 15 15 15 14 14 14 14 14 14 14 14 13 13 13 13 13 13 13 13 13 13 12
18 18 18 17 17 17 17 17 17 16 16 16 16 15 15 15 15 15 15 15 15 14 14 14 14 14 14 14 14 14 14 13 13 13 13 13 13 13 13 13 13 12 12
17 17 17 16 16 16 16 16 16 16 16 15 15 15 15 15 15 15 14 14 14 14 14 14 14 14 14 14 14 13 13 13 13 12 13 12 12 12 12 12 12 12 12
16 16 16 16 16 15 15 15 15 15 15 15 15 15 15 14 14 14 14 14 14 14 14 14 14 14 13 13 13 13 13 13 12 12 12 12 12 12 12 12 12 12 12
16 16 15 15 15 15 15 15 15 15 15 14 14 14 14 14 14 14 14 14 14 14 14 14 14 14 13 13 13 13 13 13 12 12 12 12 12 11 11 12 11 12 11
Wind_Speed
11 10 10 10 9 9 8 7 5 5 4 3 3 2 3 2 2 3 3 2 1 1 1 2 1 1 2 2 1 1 0 1 1 1 1 1 3 4 4 3 3 4 5
11 10 10 10 10 9 8 7 6 6 5 4 3 3 3 3 3 2 3 3 2 1 1 2 1 1 1 1 1 1 1 1 0 1 1 1 0 1 3 4 4 4 4
12 12 11 9 10 10 10 8 6 6 5 4 3 3 3 2 2 3 3 2 2 2 2 2 2 2 1 1 0 1 1 1 1 1 0 1 0 1 1 3 3 4 3
11 12 11 10 10 10 10 8 7 6 6 5 4 4 3 3 2 2 3 3 2 2 1 2 2 2 2 2 1 2 2 2 2 1 0 1 0 1 0 0 2 3 3
10 11 11 10 10 10 10 9 8 7 6 5 4 4 3 3 2 3 4 3 3 2 2 1 1 1 1 1 2 2 2 2 2 2 1 1 0 2 1 1 0 1 1
9 10 9 9 8 8 8 9 8 7 6 6 5 5 3 3 2 2 3 3 2 2 2 1 2 1 0 1 1 1 1 1 3 3 2 1 1 1 1 1 1 1 1
9 10 10 9 8 8 8 9 9 8 7 6 5 5 5 4 3 3 2 2 2 2 3 2 1 0 0 1 1 0 1 1 2 2 2 2 2 2 1 0 1 1 1
8 9 9 9 8 8 7 8 9 8 7 6 5 4 4 4 3 3 2 2 2 3 3 3 2 1 1 1 0 1 0 1 2 2 2 2 2 2 2 1 0 0 0
8 8 9 8 8 8 7 7 8 8 8 7 6 5 4 3 3 3 2 2 2 3 3 3 3 2 1 0 0 0 1 1 1 2 2 1 2 1 1 1 1 0 1
8 8 8 8 7 7 7 8 8 8 8 7 6 6 5 4 3 3 3 2 2 2 2 3 2 2 1 1 0 0 0 0 1 1 1 1 2 2 1 1 1 1 0
7 7 7 7 7 7 7 7 7 7 7 7 6 5 5 5 5 4 3 3 3 3 2 2 2 2 2 1 1 0 0 0 1 2 1 1 1 2 2 2 2 1 0
6 5 6 7 6 6 6 6 6 7 6 6 6 5 5 5 5 5 4 4 4 3 2 3 2 2 2 2 1 1 0 0 0 1 1 1 1 1 2 2 2 1 1
5 4 5 5 5 5 5 5 5 5 5 5 6 6 6 5 5 4 4 4 3 3 2 2 3 2 2 2 2 2 1 1 1 1 0 1 1 1 1 2 2 2 2
5 5 5 5 4 4 4 4 4 4 5 5 5 3 4 4 4 4 4 4 3 3 3 3 3 3 2 2 2 2 1 1 1 1 0 1 0 1 1 1 1 2 2
5 5 5 5 4 5 4 4 4 4 4 4 4 3 2 2 2 3 4 3 3 3 2 2 2 3 3 2 1 1 2 1 1 1 1 1 1 0 1 1 1 1 2
4 4 4 4 4 4 4 3 4 4 4 4 4 4 3 2 2 2 3 3 3 3 3 3 2 3 3 3 2 1 1 2 2 2 2 2 3 2 1 2 1 1 1
3 3 3 4 4 4 4 4 3 4 4 3 3 3 3 3 3 3 3 3 3 3 2 2 2 2 2 3 2 2 2 3 3 3 3 4 3 2 2 3 3 4 4
2 3 2 3 3 4 4 3 3 3 4 4 3 3 3 3 2 2 2 4 4 4 3 3 3 3 3 4 3 2 4 4 4 4 4 3 2 2 1 3 3 4 4
3 2 2 3 3 3 4 4 3 3 4 3 3 3 3 3 3 3 3 2 3 3 4 4 4 4 3 5 4 3 4 4 4 4 4 3 2 2 2 3 4 3 3
3 2 2 2 2 2 3 4 3 3 3 2 2 2 2 2 3 3 3 2 2 3 3 3 3 3 4 6 6 4 4 4 4 3 3 3 3 3 3 3 3 4 4
4 3 3 3 3 2 2 3 2 2 2 2 2 2 3 3 4 3 3 3 3 3 4 4 4 4 5 7 8 7 4 4 4 3 2 2 4 4 4 4 4 5 5
4 4 4 4 4 4 4 3 1 1 1 2 2 2 2 3 3 3 3 3 3 3 4 5 5 4 5 6 7 9 8 6 4 3 2 2 5 5 6 6 6 7 6
4 4 4 4 4 4 3 2 1 1 1 1 1 1 1 2 2 3 3 4 4 4 4 4 4 4 3 4 7 8 8 8 5 3 3 4 6 6 6 8 9 6 5
4 3 3 3 3 2 2 2 2 1 1 0 1 1 2 2 2 3 3 3 3 3 4 3 3 3 2 2 3 3 4 5 4 3 3 4 6 7 6 5 5 5 5
3 3 2 2 2 2 2 2 2 2 1 1 2 2 3 3 2 2 2 2 1 2 3 2 2 2 2 2 3 3 3 3 3 3 3 3 3 4 4 4 3 3 3
2 2 2 2 2 2 2 2 2 1 1 2 2 3 3 2 2 2 2 2 3 2 3 4 4 4 4 5 6 6 6 5 4 3 5 5 5 5 4 4 4 4 4
Wind_Direction
165 162 160 160 155 147 148 152 160 156 160 164 173 171 158 153 138 123 112 115 93 80 50 26 39 64 74 66 78 85 234 252 250 288 319 244 198 178 177 184 170 172 172
166 163 165 167 163 156 154 157 167 165 167 167 176 174 169 164 156 129 123 127 121 67 76 55 23 35 91 67 11 9 323 287 299 271 268 280 161 217 188 171 179 180 179
168 169 173 174 168 165 164 169 167 165 174 175 179 177 169 184 154 144 138 132 136 115 51 56 28 348 14 71 316 320 299 301 309 322 0 311 310 286 167 182 165 160 167
169 170 174 177 174 171 169 164 162 165 170 176 185 186 176 178 172 157 142 141 126 121 108 78 50 10 11 27 343 33 314 307 309 328 6 194 114 243 285 278 147 155 168
173 172 173 174 175 171 167 165 161 166 165 173 174 186 192 188 174 155 147 150 153 148 127 107 85 48 22 16 9 11 354 353 338 325 313 292 228 238 222 237 167 152 163
161 163 163 157 166 165 163 159 158 162 167 180 180 183 190 188 174 165 160 165 149 140 121 102 81 69 39 347 341 348 11 351 334 333 342 344 345 307 252 220 217 188 156
153 159 161 161 165 166 168 164 159 166 173 180 185 188 189 187 188 185 171 168 151 136 130 129 105 163 292 292 307 14 347 339 323 324 323 326 339 338 349 11 254 164 166
160 161 161 162 165 166 162 157 161 166 172 175 180 188 192 198 191 181 170 165 150 139 145 151 151 187 240 284 357 299 255 316 313 324 326 323 344 348 353 350 7 326 237
157 157 159 161 162 165 164 160 155 164 171 175 172 181 184 189 182 171 178 166 135 154 147 159 177 184 165 303 27 5 351 345 342 329 326 330 323 333 345 358 32 244 268
157 159 158 160 156 157 160 159 155 164 171 175 179 178 170 175 177 186 180 149 141 147 158 160 167 163 147 137 120 296 315 11 334 310 340 337 339 338 341 357 5 23 244
149 150 155 155 158 156 153 160 155 160 169 170 169 165 172 178 178 185 180 164 161 166 161 152 153 150 144 140 151 218 56 17 330 326 331 328 345 348 352 352 0 4 27
134 138 144 146 149 148 148 150 154 164 167 165 165 167 173 179 186 188 180 173 167 176 172 165 172 177 166 168 172 226 285 264 299 305 331 317 312 342 333 338 336 326 309
122 117 110 118 136 136 138 143 151 166 166 160 166 172 179 187 193 187 170 168 173 184 177 169 173 182 183 191 196 193 246 286 284 282 303 290 296 283 304 302 312 312 312
122 118 112 106 110 111 114 130 155 159 153 149 156 163 184 185 185 179 170 176 181 192 196 185 181 191 198 200 198 189 215 251 287 312 297 298 300 275 271 275 307 311 310
121 114 108 104 104 106 114 127 141 135 139 143 151 155 162 157 160 163 166 172 187 202 195 198 201 208 214 206 174 215 215 211 259 278 273 260 207 334 293 292 305 299 298
121 119 116 115 113 123 128 126 136 136 140 148 149 145 153 158 150 172 167 172 189 204 201 207 214 227 232 149 143 207 230 224 236 251 253 240 222 195 212 240 257 268 258
147 125 123 122 128 132 133 136 141 142 141 145 147 148 157 166 175 191 169 182 197 201 209 212 214 219 197 164 155 172 237 233 236 241 243 256 243 194 226 237 239 252 253
145 135 132 123 116 121 128 132 143 141 144 149 151 158 170 177 181 193 193 204 199 200 205 213 211 212 198 166 175 217 237 231 233 237 241 244 229 252 272 262 258 248 252
134 119 120 129 118 121 139 145 156 151 156 164 168 175 181 185 196 206 212 218 209 208 209 210 202 203 193 181 191 215 256 240 239 232 231 216 215 225 269 267 268 269 268
93 93 85 92 93 105 152 158 170 160 166 174 178 177 187 202 208 209 209 213 214 216 219 222 215 211 203 195 196 207 256 255 250 230 208 197 197 207 244 263 269 269 273
84 82 79 77 73 72 99 124 132 165 174 167 169 176 191 205 205 204 209 215 223 227 221 226 224 218 208 198 198 202 238 263 264 250 214 200 190 208 242 258 262 262 275
83 73 65 64 64 64 76 80 75 129 133 146 173 196 209 233 219 192 206 211 219 235 229 227 229 220 201 193 199 206 228 254 266 261 248 211 203 224 246 254 254 260 270
68 67 67 65 59 55 62 64 34 56 119 152 189 217 231 242 219 202 212 216 220 234 243 234 231 226 201 190 194 210 230 242 259 286 271 247 232 243 253 245 246 249 251
65 58 65 72 63 49 39 31 28 31 77 193 255 235 223 235 236 229 229 228 233 241 248 256 259 249 223 200 195 211 226 238 244 264 277 248 241 251 255 251 244 243 248
60 62 64 58 45 34 27 25 26 33 14 273 270 256 250 243 243 244 261 254 251 242 251 273 284 277 263 243 209 220 235 240 251 259 256 249 254 250 244 244 244 244 250
49 32 33 34 33 31 13 4 2 359 286 255 262 267 262 256 255 240 261 265 233 206 210 228 247 256 246 224 216 216 220 218 219 236 252 252 247 250 251 245 245 240 239
Height
1506 1509 1511 1513 1515 1516 1518 1519 1521 1522 1524 1525 1526 1527 1528 1529 1530 1530 1530 1531 1531 1531 1532 1532 1532 1532 1532 1532 1532 1532 1532 1533 1532 1532 1532 1532 1532 1532 1533 1534 1535 1535 1536
1503 1507 1510 1512 1513 1515 1516 1518 1519 1521 1522 1523 1525 1526 1528 1529 1529 1530 1530 1530 1530 1531 1532 1531 1532 1532 1532 1532 1532 1532 1532 1532 1532 1532 1531 1531 1532 1531 1532 1532 1533 1534 1535
1500 1504 1507 1509 1511 1513 1514 1516 1518 1519 1521 1522 1524 1526 1527 1528 1529 1530 1530 1530 1530 1530 1530 1530 1531 1531 1531 1531 1531 1531 1531 1531 1531 1531 1531 1531 1531 1531 1531 1532 1532 1533 1534
1496 1501 1504 1507 1509 1511 1513 1514 1516 1518 1519 1521 1523 1524 1525 1526 1528 1528 1529 1529 1529 1529 1529 1529 1530 1530 1530 1530 1530 1531 1531 1531 1531 1531 1531 1531 1531 1530 1530 1531 1531 1532 1532
1493 1497 1501 1505 1507 1509 1511 1513 1514 1516 1518 1519 1521 1522 1524 1525 1526 1527 1528 1528 1528 1528 1528 1528 1529 1529 1529 1529 1529 1529 1530 1530 1530 1530 1530 1530 1530 1530 1530 1530 1530 1531 1531
1491 1495 1499 1502 1505 1508 1510 1512 1513 1514 1516 1518 1519 1520 1522 1523 1524 1525 1526 1526 1526 1527 1527 1527 1527 1527 1528 1528 1528 1528 1528 1529 1529 1529 1529 1529 1529 1528 1529 1529 1529 1529 1530
1489 1493 1497 1500 1503 1505 1507 1509 1510 1512 1514 1515 1517 1519 1520 1521 1522 1523 1524 1525 1525 1525 1525 1526 1526 1526 1526 1527 1527 1527 1527 1527 1528 1528 1528 1528 1528 1528 1528 1528 1528 1528 1528
1488 1491 1495 1498 1501 1503 1505 1507 1508 1510 1512 1513 1515 1517 1518 1519 1521 1522 1523 1523 1524 1524 1524 1524 1524 1525 1525 1525 1526 1526 1525 1526 1526 1526 1527 1527 1527 1527 1527 1527 1527 1527 1527
1486 1490 1493 1496 1499 1501 1503 1505 1506 1508 1510 1512 1513 1514 1516 1517 1518 1519 1521 1522 1522 1523 1523 1523 1523 1523 1523 1524 1524 1524 1524 1524 1524 1525 1525 1525 1525 1526 1526 1526 1526 1526 1526
1486 1488 1491 1494 1497 1499 1501 1503 1504 1506 1508 1510 1512 1513 1514 1515 1516 1518 1519 1519 1520 1521 1521 1521 1521 1521 1521 1522 1522 1522 1522 1523 1523 1523 1524 1524 1524 1524 1524 1524 1524 1524 1524
1484 1487 1490 1493 1495 1497 1499 1501 1503 1505 1506 1508 1509 1511 1512 1513 1514 1515 1516 1517 1518 1519 1519 1519 1519 1520 1520 1520 1520 1520 1520 1521 1521 1522 1522 1522 1522 1522 1522 1522 1522 1522 1523
1483 1486 1489 1491 1493 1495 1498 1499 1501 1503 1504 1506 1507 1509 1510 1512 1512 1513 1514 1515 1516 1517 1517 1517 1517 1518 1518 1518 1518 1519 1519 1519 1519 1520 1520 1520 1520 1520 1520 1520 1520 1521 1521
1484 1486 1488 1490 1492 1494 1496 1498 1500 1501 1503 1504 1506 1507 1508 1509 1510 1511 1512 1513 1513 1514 1515 1515 1515 1516 1516 1516 1516 1517 1517 1517 1518 1518 1518 1518 1518 1518 1518 1518 1518 1518 1519
1484 1486 1488 1490 1492 1493 1495 1496 1498 1500 1501 1502 1503 1504 1506 1507 1507 1508 1509 1510 1511 1512 1513 1513 1513 1514 1514 1514 1514 1515 1516 1516 1516 1516 1516 1516 1516 1516 1516 1516 1516 1516 1516
1484 1486 1488 1490 1491 1492 1494 1495 1497 1498 1499 1500 1501 1502 1503 1504 1505 1505 1505 1507 1508 1510 1510 1511 1511 1512 1512 1512 1513 1513 1514 1514 1514 1514 1514 1514 1514 1514 1514 1514 1513 1513 1513
1484 1486 1488 1489 1490 1491 1492 1494 1495 1496 1497 1498 1498 1499 1501 1502 1502 1503 1503 1504 1506 1507 1508 1509 1509 1509 1510 1511 1511 1511 1512 1512 1512 1512 1512 1512 1512 1512 1511 1511 1511 1511 1511
1484 1485 1487 1488 1489 1490 1491 1492 1494 1495 1496 1496 1497 1498 1499 1500 1500 1501 1502 1502 1503 1505 1505 1506 1506 1507 1507 1508 1509 1509 1509 1510 1510 1510 1510 1510 1509 1509 1509 1508 1508 1508 1507
1484 1485 1486 1487 1488 1489 1490 1491 1492 1493 1494 1495 1495 1496 1497 1498 1498 1499 1500 1500 1501 1502 1502 1503 1504 1504 1505 1506 1506 1507 1507 1507 1507 1507 1507 1507 1507 1507 1506 1506 1505 1504 1504
1483 1484 1485 1486 1487 1488 1489 1490 1491 1492 1493 1494 1494 1494 1495 1496 1496 1497 1497 1498 1499 1499 1500 1500 1501 1501 1502 1503 1503 1504 1504 1504 1504 1504 1504 1504 1504 1504 1503 1503 1502 1501 1501
1482 1483 1484 1484 1485 1486 1487 1488 1489 1490 1491 1492 1492 1492 1493 1494 1494 1495 1495 1496 1497 1497 1498 1498 1499 1499 1499 1500 1500 1501 1501 1501 1500 1500 1500 1501 1500 1500 1500 1500 1499 1498 1498
1482 1482 1483 1484 1484 1485 1486 1487 1488 1488 1489 1490 1490 1491 1491 1491 1492 1493 1493 1494 1494 1495 1495 1495 1496 1496 1496 1497 1497 1497 1497 1497 1497 1498 1497 1497 1497 1497 1497 1496 1496 1495 1495
1481 1481 1482 1483 1483 1484 1484 1485 1486 1487 1487 1487 1488 1489 1489 1490 1491 1491 1491 1491 1492 1492 1492 1493 1493 1493 1493 1494 1494 1494 1494 1494 1494 1494 1494 1494 1494 1493 1493 1492 1492 1492 1492
1481 1481 1482 1482 1483 1483 1483 1484 1484 1485 1485 1486 1486 1487 1487 1488 1489 1489 1489 1489 1489 1490 1490 1490 1490 1490 1490 1490 1491 1491 1490 1491 1491 1491 1491 1490 1490 1489 1489 1488 1488 1488 1488
1481 1482 1482 1482 1482 1482 1482 1483 1483 1483 1483 1484 1484 1485 1485 1486 1486 1486 1487 1487 1487 1487 1487 1488 1488 1487 1487 1487 1487 1487 1487 1487 1487 1487 1486 1486 1486 1485 1485 1485 1484 1484 1484
1481 1482 1482 1482 1482 1482 1481 1481 1481 1481 1481 1481 1482 1483 1483 1483 1484 1484 1484 1484 1484 1484 1484 1484 1484 1484 1484 1484 1483 1483 1483 1483 1483 1483 1482 1482 1481 1481 1481 1481 1481 1480 1480
1481 1481 1481 1481 1481 1480 1480 1480 1480 1480 1479 1480 1479 1480 1480 1480 1481 1481 1481 1480 1480 1480 1480 1481 1481 1480 1480 1480 1479 1479 1479 1478 1478 1478 1477 1477 1477 1477 1477 1477 1476 1476 1476